TIME,DELAY(SENSOR),PRES,OXYGEN,RAWTEMP,T(OPTODE),TCPHASE,FLUOR,BETA(BETA700),BETA(BETA412),BETA(BETA440),CDOM,C(CSC),ED(ED412.40),ED(ED444.00),ED(ED489.70),ED(ED554.30),LU(LU411.80),LU(LU443.40),LU(LU489.60),LU(LU554.10),COMP,TILTX,TILTY,CHECK
1335153097,5810,875.5000000000000000,42.3549003601074200,660.0928955078125000,4.6249141693115230,54.6431388854980500,54,101,87,80,83,15283,2147757933,2147423744,2148003584,2147873097,2147638701,2147063680,2148257088,2147205504,3048,4,13,60027
1335156693,5808,980.1099853515625000,45.3401107788085940,668.4210205078125000,4.3503460884094240,54.3097000122070300,53,100,89,80,84,15284,2147758354,2147421604,2148002486,2147873225,2147642578,2147061586,2148257536,2147204288,3426,4,13,8919
1335160293,5811,1003.5300292968750000,45.2669715881347660,669.7402954101562000,4.3067760467529300,54.3353004455566400,51,99,90,78,84,15277,2147759414,2147421805,2148004982,2147870006,2147641051,2147066944,2148263021,2147201344,451,4,13,40777
1335163893,5807,993.3900146484375000,45.3837318420410160,670.9487304687500000,4.2668528556823730,54.3339996337890600,53,100,86,79,83,15273,2147755977,2147423954,2148005942,2147873737,2147643858,2147060388,2148261504,2147202477,751,4,13,25134
1335167493,5808,996.2899780273438000,46.2840003967285160,672.8607788085938000,4.2036480903625490,54.2232284545898440,53,99,88,80,84,15277,2147759488,2147420644,2148005001,2147871497,2147641609,2147055899,2148264576,2147203986,3438,4,13,6658
1335171093,5807,995.7999877929688000,46.3364295959472660,673.7238159179688000,4.1751098632812500,54.2300796508789060,53,101,89,79,84,15275,2147759753,2147423926,2148004809,2147873124,2147643053,2147056448,2148262262,2147202925,2251,4,13,27507
1335174693,5808,1006.5499877929688000,46.1700286865234400,673.1851806640625000,4.1929187774658200,54.2454490661621100,52,99,90,79,84,15272,2147759881,2147421632,2148006875,2147873508,2147641673,2147056100,2148262418,2147199387,3279,4,13,60222
1335178293,5812,1002.8699951171875000,45.9103012084960940,673.2468872070312000,4.1908822059631350,54.2828102111816400,53,102,91,80,84,15271,2147759350,2147420169,2148005833,2147872064,2147644196,2147062601,2148264850,2147201243,3210,4,13,26288
1335181893,5811,997.7000122070312000,46.5952682495117200,675.0286865234375000,4.1319351196289060,54.2061996459960940,53,103,84,79,83,15271,2147759542,2147422272,2148004388,2147870820,2147640960,2147057408,2148258560,2147198720,315,4,13,42394
1335185493,5808,998.9299926757812000,47.2083206176757800,675.5864868164062000,4.1134757995605470,54.1261596679687500,53,100,88,80,83,15272,2147760941,2147424338,2148005869,2147869595,2147642112,2147061467,2148262528,2147203382,503,4,13,20611
1335189093,5808,1008.9400024414062000,46.9574394226074200,674.8358764648438000,4.1383171081542970,54.1527900695800800,53,101,86,79,83,15267,2147758445,2147421531,2148005504,2147870162,2147640265,2147056594,2148264082,2147202340,10,4,13,17889
1335192693,5808,1007.8200073242188000,47.1797485351562500,675.5850830078125000,4.1135230064392090,54.1323318481445300,52,101,89,80,83,15270,2147757074,2147421988,2148006107,2147872054,2147643958,2147061613,2148255460,2147205165,265,4,13,22529
1335196293,5806,1006.0200195312500000,46.2050209045410160,674.9332885742188000,4.1350917816162110,54.2674293518066400,53,99,87,79,84,15264,2147760877,2147420196,2148006720,2147873636,2147643574,2147059209,2148260315,2147201737,142,4,13,53733
1335199893,5811,1007.5700073242188000,46.5103988647460940,674.6428833007812000,4.1447010040283200,54.2178001403808600,53,98,86,78,84,15267,2147757970,2147422418,2148001188,2147870710,2147643017,2147066898,2148262921,2147202916,136,4,13,44069
1335203493,5808,1011.8200073242188000,46.6007194519043000,674.5859985351562000,4.1465849876403810,54.2054901123046900,54,98,90,79,83,15264,2147759305,2147420553,2148005952,2147871533,2147641298,2147062418,2148261522,2147203666,3201,4,13,27330
1335207093,5808,1008.5599975585938000,46.4736900329589840,674.8189697265625000,4.1388778686523440,54.2255096435546900,52,98,89,80,83,15267,2147759506,2147421312,2148008027,2147872228,2147641307,2147058148,2148262985,2147198006,3530,4,13,43507
1335210693,5806,1014.9099731445312000,46.2001609802246100,674.4072265625000000,4.1525020599365230,54.2606391906738300,53,108,90,77,84,15265,2147761508,2147420790,2148001517,2147874706,2147639981,2147055844,2148265572,2147200704,658,4,13,12161
1335214293,5810,1011.2600097656250000,45.5650901794433600,673.6041259765625000,4.1790680885314940,54.3414001464843750,52,100,88,79,84,15262,2147763209,2147421531,2148005970,2147871305,2147641563,2147064841,2148262272,2147202166,3269,4,13,12158
1335217893,5810,1012.2999877929688000,46.0450592041015600,674.7039184570312000,4.1426830291748050,54.2789611816406250,53,99,87,80,84,15265,2147754944,2147420288,2148008237,2147872475,2147638546,2147061961,2148265974,2147198976,143,4,13,23475
1335221493,5808,1019.7999877929688000,46.1206512451171900,673.8886108398438000,4.1696572303771970,54.2666015625000000,54,99,88,79,84,15256,2147756288,2147421504,2148004205,2147870656,2147640722,2147067117,2148262966,2147200594,9,4,13,31918
1335225093,5811,1013.9099731445312000,46.1186790466308600,674.0512695312500000,4.1642761230468750,54.2630996704101560,53,99,89,79,84,15263,2147762468,2147422061,2148005586,2147873883,2147639497,2147057929,2148260224,2147201801,234,4,13,34527
1335228693,5807,1022.2500000000000000,46.0918502807617200,673.8375854492188000,4.1713428497314450,54.2651405334472660,53,99,91,79,84,15263,2147758436,2147422281,2148004022,2147873115,2147638628,2147061019,2148262811,2147202806,57,4,13,21010
1335232293,5807,1015.1599731445312000,45.4445915222168000,673.8211059570312000,4.1718878746032715,54.3563385009765600,53,100,87,80,83,15263,2147760374,2147422308,2148007881,2147872192,2147639259,2147061851,2148265243,2147202166,3383,4,13,27152
1335235893,5810,1019.1099853515625000,45.6022300720214840,674.3604125976562000,4.1540508270263670,54.3397407531738300,53,105,88,82,84,15266,2147762102,2147423094,2148006445,2147874742,2147641106,2147060379,2148269741,2147198957,206,4,13,868
1335239493,5803,1018.6799926757812000,46.2122306823730500,674.7581787109375000,4.1408882141113280,54.2629508972168000,53,100,92,80,84,15263,2147760173,2147422454,2148011501,2147873060,2147638171,2147061494,2148266249,2147205010,454,4,13,33639
1335243093,5805,1014.2800292968750000,45.8097190856933600,673.8967895507812000,4.1693859100341800,54.3060188293457000,52,101,88,80,83,15261,2147758537,2147420123,2148007844,2147872603,2147639250,2147061330,2148264356,2147201234,321,4,13,2559
1335246693,5809,1016.0599975585938000,46.2323493957519500,674.5034790039062000,4.1493148803710940,54.2557792663574200,53,101,86,78,83,15263,2147759808,2147421604,2148007250,2147872868,2147642934,2147059373,2148265856,2147201837,243,4,13,61666
1335250293,5806,1019.5100097656250000,45.7693481445312500,674.1854248046875000,4.1598381996154785,54.3178215026855500,53,100,90,78,84,15264,2147756626,2147421750,2148005174,2147874276,2147636736,2147067584,2148263058,2147202020,3591,4,13,56861
1335253893,5811,1016.0999755859375000,46.4673690795898440,675.5070800781250000,4.1161041259765625,54.2335586547851560,53,100,88,80,84,15229,2147757997,2147420827,2148005357,2147872384,2147640548,2147058825,2148267483,2147204315,79,4,13,2123
1335257493,5805,1011.4699707031250000,46.5704002380371100,675.5996704101562000,4.1130390167236330,54.2228813171386700,53,100,86,80,84,15231,2147759890,2147419410,2148004022,2147872548,2147641609,2147059529,2148267181,2147202724,193,4,13,27563
1335261093,5808,1016.5100097656250000,45.9148902893066400,675.6398925781250000,4.1117100715637210,54.3110008239746100,53,99,91,80,83,15230,2147760804,2147419803,2148008036,2147871597,2147640786,2147062345,2148265929,2147202605,106,4,13,12691
1335264693,5809,1015.2000122070312000,46.1834106445312500,675.6118774414062000,4.1126351356506350,54.2761192321777340,52,99,90,80,84,15230,2147759917,2147420352,2148006893,2147873581,2147641920,2147062326,2148263232,2147202596,19,4,13,56184
1335268293,5805,1017.9600219726562000,46.3648796081543000,674.8110961914062000,4.1391367912292480,54.2401390075683600,53,113,89,79,85,15230,2147759469,2147421321,2148007104,2147871350,2147640950,2147060946,2148263360,2147202596,3142,4,13,62683
1335271893,5808,1020.9299926757812000,46.3445091247558600,674.6961059570312000,4.1429419517517090,54.2382011413574200,54,101,89,79,83,15229,2147759762,2147420690,2148007067,2147874459,2147639515,2147063305,2148268891,2147203282,67,4,13,23394
1335275493,5806,1021.0100097656250000,45.8825416564941400,674.2299194335938000,4.1583671569824220,54.2962188720703100,52,102,89,79,84,15229,2147760054,2147420141,2148005220,2147873590,2147639707,2147059739,2148261010,2147201289,162,4,13,37695
1335279093,5809,1020.0000000000000000,45.5838890075683600,674.0924072265625000,4.1629137992858890,54.3408088684082000,53,101,85,80,84,15231,2147759762,2147421421,2148004827,2147872548,2147643446,2147063533,2148269430,2147202166,122,4,13,7563
1335282693,5810,1023.5399780273438000,45.2037506103515600,673.0958251953125000,4.1958751678466800,54.3826103210449200,53,97,88,81,83,15227,2147762194,2147420278,2148004891,2147871853,2147645330,2147063232,2148261988,2147202870,1336,4,13,39091
1335286293,5807,1018.5000000000000000,45.2442016601562500,674.3850708007812000,4.1532311439514160,54.3949508666992200,52,109,86,79,84,15228,2147760987,2147422272,2148007744,2147874148,2147644352,2147058953,2148263286,2147201344,3298,4,13,13564
1335289893,5808,1019.4699707031250000,46.2063217163085940,676.0153808593750000,4.0992789268493650,54.2736701965332000,53,100,86,79,85,15229,2147759286,2147419328,2148005257,2147872877,2147640201,2147066285,2148264356,2147203428,444,4,13,1336
1335293493,5809,1013.4400024414062000,46.2763595581054700,675.3750000000000000,4.1204781532287600,54.2552909851074200,52,101,86,80,84,15230,2147760713,2147419812,2148007003,2147872749,2147641142,2147060864,2148265618,2147203995,90,4,13,14106
1335297093,5807,1014.3499755859375000,46.7652397155761700,676.5070800781250000,4.0830039978027340,54.2060508728027340,52,100,88,79,85,15163,2147760411,2147421586,2148007158,2147873188,2147643876,2147060416,2148266084,2147201216,3500,4,13,28148
1335297355,5808,1017.0499877929688000,46.6171684265136700,676.4641723632812000,4.0844230651855470,54.2273902893066400,53,98,90,78,83,15274,2147761636,2147420205,2148006573,2147873197,2147642587,2147060388,2148267638,2147204269,3387,4,13,44434
